星链-3796 (STARLINK-3796 )

导读

STARLINK-3796是美国太空探索技术公司(SpaceX)星链(Starlink)星座的一颗卫星,于2022年4月29日发射升空,归属Starlink Group项目,主要承担卫星互联网组网任务,为全球提供低延迟、高速率的宽带互联网服务,是Starlink近地轨道星座组网建设中的组成部分。

基本信息
目录编号:
52372
目录名称:
STARLINK-3796
国际标识:
2022-045AT
轨道中心:
EARTH
卫星名称:
星链-3796
卫星全名:
星链-3796 (STARLINK-3796 )
卫星状态:
在轨 (已飞行1510 天)
发射日期:
2022-04-29 UTC
国别 :
美国 (US)
星等 :
--
轨道信息
数据来源 国际轨道数据 AOE轨道数据
星历时间 2026-06-17T09:17:14+0800
14小时前
查看轨道信息
2026-06-14T02:00:00+0800
3天前
查看轨道信息
半长轴 6917.9km 6917.899km
偏心率 0.0001316 0.0001427
轨道倾角 53.161° 53.161°
近地点辐角 91.942° 81.363°
升交点赤经 102.965° 117.814°
平近点角 268.173° 324.222°
近地点 538.852km 538.774km
远地点 540.674km 540.75km
周期 95.438分钟 95.438分钟
每日圈数 15.088338 15.08834
详细信息
固有亮度:
5
最大亮度:
2.5
卫星平台:
Starlink v1.5
覆盖范围:
全球
运营商:
太空探索技术公司
运营商所在国:
美国
制造商(研发单位):
太空探索技术公司
制造商所在国:
美国
使用方式:
暂无
卫星简介
星链(Starlink)计划是由太空探索技术公司(SpaceX)提出的一个巨型低轨卫星互联网星座项目,计划在2019年至2024年间在太空搭建由约1.2万颗卫星组成的“星链”网络,其中1584颗将部署在地球上空550千米处的近地轨道,并从2020年开始工作。该卫星仍在工作。
2D轨道图
3D轨道图
轨道高度分析图
轨道倾角分析图
轨道综合分析图
查看轨道综合分析图